KUIPER-00629

导读

KUIPER-00629(NORAD ID 69783)是美国亚马逊“柯伊伯计划”低轨宽带通信星座的组网卫星,隶属于该计划2026年7月2日发射的29颗批次卫星,由联合发射联盟“宇宙神5”火箭从佛罗里达州卡纳维拉尔角太空军基地送入近地轨道。该卫星为Ka/Ku双频段通信载荷,单星重约330公斤,设计寿命7年,支持星间激光链路升级与在轨软件更新,主要为全球偏远及欠发达地区提供低延迟(低于40毫秒)、下行速率超100Mbps的高速宽带服务,是柯伊伯计划2026年底启动全球公测、构建3236颗规模星座的规模化部署节点之一。

Basic Information
目录编号:
69783
目录名称:
KUIPER-00629
国际标识:
2026-151W
轨道中心:
EARTH
卫星名称:
KUIPER-00629
卫星全名:
KUIPER-00629
卫星状态:
在轨 (已飞行12 天)
发射日期:
2026-07-02 UTC
国别 :
美国 (US)
星等 :
--
Orbit Information
数据来源 国际轨道数据 AOE轨道数据
星历时间 2026-07-13T21:32:49+0800
14小时前
查看轨道信息
2026-07-10T00:00:00+0800
4天前
查看轨道信息
半长轴 6833.286km 6833.535km
偏心率 0.0007214 0.0007285
轨道倾角 51.873° 51.875°
近地点辐角 140.505° 128.407°
升交点赤经 188.307° 207.143°
平近点角 219.646° 251.867°
近地点 450.219km 450.419km
远地点 460.079km 460.377km
周期 93.692分钟 93.697分钟
每日圈数 15.369452 15.368612
Detailed Information
使用方式:
暂无
2D Orbit Map
3D Orbit Map
Orbit Altitude Analysis Chart
Orbit Inclination Analysis Chart
Orbit Comprehensive Analysis Chart
View Comprehensive Chart